Flag for U.S.A. Weather past 2 weeks in Santa Rosa, California, U.S.A.

Now
46 °F

Clear.


Feels Like: 45 °F
Forecast: 41 / 68 °F
Wind: 3 mph from South

Location: Santa Rosa Sonoma County Airport

Current Time: Jan 30, 2015 at 11:56:26 PM

Latest Report: Jan 30, 2015 at 10:53 PM


Visibility: 10 mi

Pressure: 29.91 "Hg

Humidity: 93%

Dew point: 44 °F

Location of Santa RosaLocation

Historic Weather in Santa Rosa — Graph

°F

Santa Rosa temperature yesterday

Maximum temperature yesterday: 69 °F (at 2:53 PM)
Minimum temperature yesterday: 38 °F (at 6:53 AM)
Average temperature yesterday: 50 °F

Past Weeks' High & Low Weather Summary

 TemperatureHumidityPressure
High72 °F (Jan 30, 2:53 PM)100% (Jan 16, 1:53 AM)30.37 "Hg (Jan 16, 1:53 AM)
Low35 °F (Jan 26, 6:53 AM)45% (Jan 29, 1:53 PM)29.86 "Hg (Jan 30, 3:53 PM)
Average50 °F88%30.15 "Hg
* Reported Jan 15 9:53 PM — Jan 30 9:53 PM, Santa Rosa, Weather by CustomWeather, © 2014

Note: Actual official high and low records may vary slightly from our data, if they occured in-between our weather recording intervals... More about our weather records

Advertising

Santa Rosa weather history for previous 24 hours

 ConditionsComfort  
Time TempWeatherWind HumidityBarometerVisibility
9:53 PM
Jan 30
47 °FClear.3 mph93%29.91 "Hg9 mi
8:53 PM49 °FClear.No wind93%29.90 "Hg9 mi
7:53 PM52 °FClear.No wind86%29.90 "Hg10 mi
6:53 PM54 °FClear.No wind80%29.90 "Hg10 mi
5:53 PM57 °FClear.3 mph74%29.89 "Hg10 mi
4:53 PM64 °FSunny.7 mph61%29.87 "Hg10 mi
3:53 PM70 °FSunny.7 mph49%29.86 "Hg10 mi
2:53 PM72 °FSunny.5 mph48%29.86 "Hg10 mi
1:53 PM71 °FSunny.No wind47%29.88 "Hg10 mi
12:53 PM67 °FSunny.3 mph53%29.91 "Hg10 mi
11:53 AM63 °FSunny.5 mph58%29.94 "Hg10 mi
10:53 AM57 °FSunny.No wind74%29.98 "Hg10 mi
9:53 AM51 °FSunny.No wind86%29.99 "Hg10 mi
8:53 AM43 °FSunny.No wind100%30.00 "Hg10 mi
7:53 AM38 °FSunny.No wind97%30.00 "Hg10 mi
6:53 AM38 °FFog.No wind97%30.00 "Hg1 mi
5:53 AM38 °FFog.No wind97%30.00 "Hg0 mi
4:53 AM39 °FFog.No wind100%29.99 "Hg0 mi
3:53 AM40 °FFog.No wind100%30.01 "Hg1 mi
2:53 AM40 °FFog.No wind97%30.02 "Hg1 mi
1:58 AM39 °FFog.No wind100%30.04 "Hg2 mi
12:53 AM42 °FFog.No wind96%30.03 "Hg1 mi
11:53 PM
Jan 29
45 °FFog.No wind97%30.04 "Hg6 mi
Weather by CustomWeather, © 2014

See weather overviewHow to use our weather pages